Location: Franzen
(48.6167°N, 15.3833°E)
Time: 18:10:36
(UTC+00:00)

A-11 Canister half - Pass Details

Date: 28 July 2021
Orbit: 1515 x 1685 km, 47.2° (Epoch: 19 September)

Event Time Altitude Azimuth Distance (km) Brightness Sun altitude
Rises 14:18:21 0° 170° (S) 4,772 11.7 41.2°
Reaches altitude 10° 14:23:52 10° 145° (SE) 3,833 11.1 40.3°
Maximum altitude 14:27:38 13° 122° (ESE) 3,636 10.8 39.7°
Drops below altitude 10° 14:31:26 10° 99° (E) 3,890 10.8 39.1°
Sets 14:37:06 0° 74° (ENE) 4,914 11.2 38.2°
